Location: Newark
(57.2833°N, 52.7500°E)
Time: 10:26:54
(UTC+00:00)

ISS - Visible Passes

Search period start: 19 October 2019 00:00
Search period end: 29 October 2019 00:00
Orbit: 411 x 421 km, 51.6° (Epoch: 19 October)

Date Brightness Start Highest point End Pass type
(mag) Time Alt. Az. Time Alt. Az. Time Alt. Az.
25 Oct -0.6 02:33:31 10° SSE 02:34:33 11° SE 02:35:35 10° SE visible
27 Oct -1.1 02:31:15 10° SSW 02:33:37 18° SSE 02:35:59 10° ESE visible
28 Oct -1.0 01:43:22 10° S 01:45:12 14° SSE 01:47:04 10° ESE visible
